QPF
0.07 0.08 0.07 0.05 0.05 0.04 0.04 0.04 0.03 0.02 0.02 0.02 0.02 0.02 0.02 0.03 0.04 0.04 0.04 0.06 0.07 0.06 0.06 0.07 0.09 0.07 0.07 0.07 0.06 0.06 0.06 0.07 0.05 0.06 0.07 0.05 0.05 0.06 0.07 0.05 0.03 0.02 0.02
0.04 0.06 0.07 0.05 0.04 0.04 0.04 0.04 0.04 0.04 0.03 0.02 0.02 0.03 0.03 0.04 0.05 0.05 0.05 0.07 0.08 0.08 0.07 0.07 0.07 0.05 0.05 0.05 0.05 0.05 0.07 0.07 0.06 0.06 0.06 0.05 0.04 0.05 0.06 0.04 0.02 0.01 0.02
0.02 0.03 0.05 0.04 0.03 0.04 0.04 0.05 0.05 0.04 0.04 0.03 0.03 0.06 0.06 0.04 0.04 0.05 0.04 0.06 0.08 0.08 0.08 0.07 0.05 0.04 0.04 0.04 0.04 0.06 0.06 0.06 0.06 0.06 0.05 0.03 0.03 0.04 0.04 0.04 0.02 0.01 0.01
0.01 0.02 0.02 0.03 0.02 0.03 0.03 0.03 0.03 0.03 0.03 0.03 0.03 0.08 0.06 0.06 0.05 0.05 0.05 0.05 0.06 0.07 0.08 0.07 0.06 0.05 0.04 0.04 0.04 0.04 0.06 0.05 0.06 0.07 0.05 0.05 0.03 0.03 0.03 0.02 0.01 0.01 0.01
0.02 0.02 0.02 0.02 0.01 0.02 0.02 0.02 0.02 0.02 0.02 0.03 0.03 0.04 0.05 0.06 0.06 0.06 0.06 0.06 0.07 0.08 0.10 0.08 0.05 0.04 0.03 0.03 0.03 0.04 0.06 0.08 0.08 0.06 0.04 0.04 0.03 0.04 0.03 0.01 0.01 0.01 0.01
0.01 0.02 0.02 0.02 0.02 0.02 0.02 0.02 0.01 0.01 0.02 0.02 0.04 0.05 0.05 0.06 0.07 0.06 0.07 0.11 0.09 0.12 0.14 0.09 0.06 0.04 0.02 0.02 0.03 0.04 0.06 0.08 0.06 0.03 0.01 0.01 0.01 0.03 0.03 0.03 0.01 0.01 0.02
0.01 0.02 0.02 0.02 0.03 0.02 0.02 0.02 0.02 0.02 0.01 0.02 0.05 0.07 0.08 0.08 0.06 0.06 0.11 0.17 0.14 0.17 0.14 0.11 0.07 0.04 0.03 0.03 0.03 0.04 0.07 0.07 0.05 0.04 0.02 0.01 0.01 0.02 0.02 0.02 0.01 0.01 0.01
0.01 0.02 0.02 0.02 0.04 0.04 0.03 0.02 0.02 0.02 0.01 0.01 0.02 0.05 0.06 0.05 0.04 0.07 0.15 0.20 0.20 0.17 0.13 0.09 0.05 0.03 0.03 0.03 0.04 0.04 0.07 0.07 0.05 0.07 0.04 0.02 0.02 0.03 0.03 0.02 0.01 0.01 0.00
0.01 0.01 0.01 0.02 0.03 0.05 0.05 0.03 0.02 0.01 0.02 0.02 0.03 0.03 0.03 0.03 0.05 0.10 0.17 0.21 0.20 0.13 0.09 0.06 0.04 0.03 0.03 0.04 0.05 0.06 0.07 0.09 0.06 0.07 0.05 0.02 0.03 0.03 0.04 0.02 0.01 0.01 0.01
0.01 0.01 0.01 0.05 0.08 0.10 0.08 0.05 0.02 0.02 0.03 0.03 0.03 0.03 0.03 0.04 0.08 0.14 0.16 0.18 0.13 0.08 0.06 0.05 0.04 0.03 0.03 0.04 0.05 0.05 0.06 0.09 0.06 0.05 0.06 0.06 0.06 0.04 0.05 0.04 0.03 0.03 0.02
0.02 0.02 0.02 0.03 0.04 0.05 0.04 0.03 0.03 0.03 0.03 0.03 0.03 0.04 0.05 0.06 0.12 0.15 0.13 0.10 0.07 0.05 0.05 0.05 0.05 0.04 0.03 0.03 0.04 0.04 0.04 0.10 0.13 0.08 0.06 0.05 0.05 0.05 0.05 0.04 0.04 0.03 0.02
0.03 0.02 0.02 0.05 0.04 0.04 0.04 0.02 0.01 0.01 0.02 0.04 0.05 0.05 0.08 0.13 0.16 0.12 0.09 0.07 0.05 0.04 0.05 0.06 0.06 0.04 0.03 0.04 0.04 0.03 0.04 0.08 0.11 0.13 0.07 0.04 0.04 0.07 0.07 0.03 0.03 0.03 0.03
0.03 0.02 0.02 0.04 0.06 0.06 0.05 0.03 0.03 0.03 0.03 0.06 0.08 0.10 0.12 0.13 0.12 0.08 0.06 0.06 0.05 0.04 0.03 0.04 0.04 0.04 0.03 0.04 0.04 0.04 0.05 0.06 0.07 0.09 0.06 0.05 0.04 0.05 0.05 0.04 0.04 0.04 0.04
0.03 0.01 0.01 0.01 0.02 0.03 0.03 0.04 0.04 0.04 0.04 0.05 0.06 0.05 0.06 0.06 0.05 0.04 0.04 0.04 0.04 0.03 0.03 0.03 0.04 0.05 0.08 0.05 0.05 0.06 0.06 0.06 0.06 0.07 0.05 0.04 0.03 0.03 0.04 0.04 0.04 0.03 0.03
0.04 0.01 0.01 0.01 0.02 0.02 0.02 0.03 0.03 0.03 0.03 0.04 0.05 0.05 0.05 0.05 0.04 0.03 0.04 0.05 0.05 0.05 0.03 0.06 0.06 0.06 0.07 0.06 0.06 0.07 0.05 0.04 0.04 0.05 0.04 0.03 0.03 0.02 0.03 0.03 0.03 0.03 0.03
0.03 0.02 0.02 0.02 0.01 0.01 0.02 0.02 0.02 0.03 0.03 0.04 0.04 0.04 0.04 0.04 0.05 0.06 0.04 0.04 0.06 0.06 0.06 0.10 0.07 0.06 0.06 0.06 0.09 0.10 0.06 0.05 0.05 0.05 0.05 0.04 0.04 0.04 0.03 0.04 0.04 0.03 0.03
0.02 0.02 0.01 0.01 0.01 0.01 0.01 0.02 0.02 0.02 0.02 0.03 0.04 0.05 0.06 0.05 0.04 0.05 0.05 0.04 0.04 0.05 0.05 0.07 0.06 0.05 0.04 0.04 0.06 0.05 0.05 0.05 0.04 0.05 0.07 0.05 0.04 0.04 0.04 0.05 0.05 0.04 0.04
0.01 0.01 0.01 0.01 0.01 0.02 0.02 0.02 0.02 0.02 0.02 0.03 0.03 0.04 0.05 0.04 0.03 0.03 0.04 0.03 0.03 0.04 0.04 0.05 0.05 0.05 0.06 0.04 0.04 0.04 0.04 0.05 0.03 0.04 0.07 0.07 0.06 0.05 0.05 0.06 0.06 0.05 0.05
0.01 0.01 0.02 0.02 0.02 0.02 0.03 0.03 0.02 0.03 0.04 0.03 0.03 0.04 0.05 0.04 0.03 0.03 0.03 0.02 0.02 0.03 0.04 0.03 0.04 0.06 0.05 0.04 0.04 0.05 0.05 0.05 0.06 0.05 0.07 0.08 0.07 0.06 0.04 0.05 0.07 0.06 0.05
0.01 0.05 0.09 0.02 0.02 0.03 0.03 0.03 0.03 0.03 0.03 0.03 0.03 0.04 0.04 0.04 0.04 0.03 0.02 0.02 0.03 0.04 0.04 0.04 0.04 0.03 0.03 0.04 0.04 0.05 0.07 0.06 0.06 0.07 0.08 0.12 0.12 0.11 0.09 0.06 0.05 0.05 0.06
0.02 0.03 0.04 0.03 0.02 0.02 0.02 0.02 0.04 0.05 0.04 0.03 0.03 0.05 0.05 0.04 0.05 0.05 0.03 0.04 0.04 0.03 0.03 0.05 0.05 0.04 0.03 0.04 0.05 0.04 0.05 0.05 0.06 0.08 0.10 0.13 0.13 0.13 0.13 0.12 0.09 0.06 0.06
0.01 0.01 0.02 0.02 0.02 0.01 0.01 0.02 0.03 0.05 0.05 0.04 0.04 0.07 0.10 0.08 0.06 0.05 0.05 0.04 0.04 0.04 0.03 0.03 0.05 0.04 0.03 0.04 0.05 0.05 0.04 0.04 0.08 0.08 0.11 0.14 0.15 0.11 0.11 0.14 0.16 0.13 0.12
0.01 0.01 0.01 0.01 0.02 0.02 0.03 0.03 0.03 0.05 0.06 0.06 0.05 0.06 0.07 0.06 0.04 0.04 0.05 0.04 0.04 0.04 0.04 0.04 0.05 0.05 0.04 0.05 0.05 0.05 0.05 0.04 0.04 0.07 0.10 0.13 0.14 0.13 0.09 0.08 0.11 0.14 0.12
0.01 0.01 0.01 0.02 0.03 0.02 0.02 0.03 0.03 0.04 0.05 0.04 0.04 0.04 0.06 0.05 0.05 0.05 0.07 0.06 0.05 0.05 0.05 0.05 0.06 0.06 0.05 0.06 0.08 0.06 0.04 0.05 0.07 0.10 0.15 0.12 0.10 0.12 0.15 0.13 0.08 0.08 0.08
0.01 0.01 0.01 0.01 0.01 0.01 0.01 0.02 0.03 0.03 0.02 0.03 0.05 0.04 0.04 0.03 0.06 0.07 0.05 0.05 0.09 0.08 0.06 0.06 0.05 0.05 0.05 0.07 0.09 0.09 0.08 0.07 0.09 0.16 0.16 0.10 0.07 0.09 0.13 0.14 0.09 0.06 0.08
0.02 0.01 0.01 0.01 0.01 0.01 0.01 0.01 0.02 0.02 0.01 0.02 0.03 0.05 0.04 0.03 0.05 0.06 0.05 0.10 0.12 0.08 0.07 0.08 0.06 0.06 0.05 0.07 0.07 0.07 0.07 0.07 0.08 0.13 0.11 0.08 0.06 0.06 0.07 0.08 0.06 0.06 0.07
MSLP
1014.55 1013.87 1013.27 1012.84 1012.62 1012.60 1012.75 1012.97 1013.21 1013.42 1013.57 1013.69 1013.80 1013.96 1014.20 1014.52 1014.90 1015.29 1015.65 1015.93 1016.12 1016.22 1016.26 1016.29 1016.33 1016.42 1016.55 1016.71 1016.87 1017.00 1017.08 1017.13 1017.16 1017.19 1017.26 1017.38 1017.54 1017.74 1017.93 1018.11 1018.25 1018.34 1018.41
1014.86 1014.25 1013.72 1013.34 1013.16 1013.18 1013.33 1013.56 1013.78 1013.97 1014.10 1014.19 1014.30 1014.45 1014.68 1014.99 1015.34 1015.71 1016.03 1016.27 1016.41 1016.48 1016.49 1016.49 1016.52 1016.60 1016.71 1016.85 1016.99 1017.10 1017.16 1017.20 1017.22 1017.26 1017.34 1017.48 1017.67 1017.88 1018.10 1018.29 1018.44 1018.55 1018.63
1015.03 1014.49 1014.03 1013.72 1013.61 1013.68 1013.86 1014.11 1014.34 1014.52 1014.64 1014.72 1014.81 1014.94 1015.14 1015.40 1015.71 1016.02 1016.28 1016.46 1016.56 1016.59 1016.58 1016.57 1016.60 1016.67 1016.79 1016.92 1017.04 1017.13 1017.19 1017.22 1017.24 1017.30 1017.40 1017.57 1017.78 1018.02 1018.26 1018.47 1018.63 1018.76 1018.85
1015.04 1014.59 1014.21 1013.99 1013.95 1014.08 1014.32 1014.59 1014.84 1015.03 1015.14 1015.21 1015.28 1015.38 1015.53 1015.74 1015.99 1016.22 1016.42 1016.54 1016.59 1016.59 1016.57 1016.57 1016.61 1016.69 1016.81 1016.94 1017.05 1017.14 1017.19 1017.22 1017.25 1017.33 1017.45 1017.64 1017.88 1018.13 1018.39 1018.61 1018.78 1018.92 1019.04
1014.95 1014.58 1014.29 1014.16 1014.20 1014.40 1014.69 1014.99 1015.26 1015.45 1015.56 1015.61 1015.66 1015.73 1015.84 1016.00 1016.17 1016.34 1016.47 1016.54 1016.56 1016.55 1016.53 1016.54 1016.60 1016.70 1016.83 1016.95 1017.06 1017.14 1017.18 1017.21 1017.26 1017.35 1017.50 1017.70 1017.95 1018.21 1018.47 1018.68 1018.86 1019.01 1019.14
1014.81 1014.52 1014.32 1014.28 1014.40 1014.65 1014.97 1015.30 1015.56 1015.75 1015.85 1015.90 1015.92 1015.97 1016.06 1016.17 1016.30 1016.42 1016.50 1016.53 1016.54 1016.52 1016.52 1016.55 1016.63 1016.74 1016.87 1017.00 1017.09 1017.15 1017.19 1017.22 1017.27 1017.37 1017.53 1017.74 1017.99 1018.25 1018.48 1018.69 1018.85 1018.99 1019.13
1014.70 1014.48 1014.36 1014.40 1014.58 1014.87 1015.20 1015.52 1015.77 1015.93 1016.01 1016.05 1016.08 1016.12 1016.20 1016.30 1016.40 1016.49 1016.55 1016.57 1016.57 1016.56 1016.57 1016.62 1016.71 1016.83 1016.96 1017.07 1017.15 1017.19 1017.21 1017.23 1017.28 1017.39 1017.55 1017.76 1018.00 1018.23 1018.44 1018.62 1018.76 1018.89 1019.03
1014.68 1014.53 1014.48 1014.58 1014.80 1015.09 1015.40 1015.67 1015.88 1016.00 1016.07 1016.10 1016.13 1016.19 1016.28 1016.40 1016.51 1016.60 1016.65 1016.67 1016.66 1016.66 1016.68 1016.74 1016.84 1016.96 1017.07 1017.16 1017.22 1017.24 1017.24 1017.24 1017.28 1017.38 1017.54 1017.74 1017.96 1018.17 1018.36 1018.50 1018.62 1018.74 1018.87
1014.78 1014.69 1014.70 1014.84 1015.06 1015.32 1015.58 1015.78 1015.92 1016.00 1016.03 1016.06 1016.11 1016.21 1016.34 1016.48 1016.62 1016.72 1016.78 1016.80 1016.79 1016.79 1016.81 1016.87 1016.96 1017.07 1017.16 1017.23 1017.25 1017.25 1017.23 1017.22 1017.25 1017.34 1017.49 1017.68 1017.88 1018.08 1018.24 1018.36 1018.46 1018.57 1018.70
1014.99 1014.95 1015.02 1015.17 1015.37 1015.58 1015.76 1015.87 1015.92 1015.94 1015.94 1015.97 1016.05 1016.19 1016.36 1016.55 1016.71 1016.83 1016.90 1016.91 1016.90 1016.89 1016.90 1016.94 1017.02 1017.10 1017.18 1017.22 1017.22 1017.19 1017.15 1017.13 1017.15 1017.24 1017.38 1017.56 1017.76 1017.94 1018.10 1018.22 1018.32 1018.42 1018.56
1015.26 1015.28 1015.37 1015.53 1015.69 1015.83 1015.92 1015.94 1015.91 1015.86 1015.84 1015.87 1015.98 1016.15 1016.37 1016.59 1016.78 1016.91 1016.97 1016.97 1016.94 1016.90 1016.89 1016.92 1016.97 1017.04 1017.09 1017.11 1017.10 1017.05 1017.00 1016.97 1016.98 1017.06 1017.19 1017.37 1017.57 1017.76 1017.93 1018.06 1018.18 1018.31 1018.47
1015.54 1015.60 1015.72 1015.87 1015.99 1016.06 1016.06 1015.99 1015.89 1015.79 1015.75 1015.79 1015.92 1016.12 1016.37 1016.61 1016.81 1016.93 1016.97 1016.95 1016.88 1016.82 1016.78 1016.78 1016.81 1016.86 1016.90 1016.91 1016.89 1016.83 1016.77 1016.73 1016.73 1016.79 1016.92 1017.10 1017.30 1017.51 1017.70 1017.87 1018.03 1018.19 1018.39
1015.77 1015.87 1016.00 1016.13 1016.21 1016.22 1016.15 1016.03 1015.88 1015.75 1015.70 1015.75 1015.90 1016.12 1016.38 1016.63 1016.81 1016.91 1016.92 1016.86 1016.76 1016.66 1016.59 1016.56 1016.57 1016.61 1016.64 1016.65 1016.62 1016.56 1016.49 1016.43 1016.41 1016.46 1016.56 1016.73 1016.93 1017.16 1017.38 1017.60 1017.82 1018.04 1018.28
1015.92 1016.03 1016.17 1016.28 1016.33 1016.31 1016.20 1016.05 1015.89 1015.77 1015.73 1015.80 1015.95 1016.18 1016.43 1016.66 1016.82 1016.88 1016.85 1016.75 1016.62 1016.49 1016.39 1016.34 1016.33 1016.36 1016.39 1016.39 1016.36 1016.29 1016.20 1016.12 1016.07 1016.07 1016.14 1016.28 1016.48 1016.71 1016.97 1017.24 1017.52 1017.80 1018.10
1015.99 1016.10 1016.22 1016.32 1016.36 1016.32 1016.23 1016.09 1015.96 1015.87 1015.86 1015.94 1016.10 1016.32 1016.55 1016.74 1016.86 1016.89 1016.82 1016.69 1016.53 1016.37 1016.25 1016.18 1016.16 1016.17 1016.19 1016.18 1016.14 1016.05 1015.94 1015.82 1015.73 1015.68 1015.70 1015.80 1015.97 1016.20 1016.47 1016.78 1017.11 1017.45 1017.81
1016.03 1016.11 1016.21 1016.29 1016.32 1016.31 1016.25 1016.17 1016.10 1016.07 1016.10 1016.21 1016.37 1016.57 1016.76 1016.91 1016.99 1016.98 1016.88 1016.73 1016.55 1016.38 1016.25 1016.16 1016.12 1016.11 1016.10 1016.07 1016.00 1015.89 1015.75 1015.59 1015.45 1015.35 1015.31 1015.35 1015.47 1015.68 1015.95 1016.27 1016.64 1017.03 1017.42
1016.11 1016.14 1016.19 1016.25 1016.29 1016.32 1016.32 1016.32 1016.34 1016.38 1016.46 1016.59 1016.75 1016.92 1017.07 1017.17 1017.20 1017.16 1017.05 1016.90 1016.72 1016.54 1016.40 1016.29 1016.22 1016.17 1016.13 1016.06 1015.97 1015.83 1015.66 1015.47 1015.28 1015.13 1015.04 1015.02 1015.09 1015.25 1015.50 1015.82 1016.20 1016.61 1017.03
1016.32 1016.27 1016.26 1016.29 1016.34 1016.40 1016.48 1016.58 1016.68 1016.80 1016.94 1017.08 1017.22 1017.35 1017.44 1017.50 1017.50 1017.44 1017.33 1017.18 1017.01 1016.84 1016.68 1016.54 1016.43 1016.34 1016.24 1016.14 1016.01 1015.85 1015.67 1015.47 1015.26 1015.09 1014.96 1014.91 1014.93 1015.05 1015.27 1015.56 1015.92 1016.32 1016.73
1016.71 1016.57 1016.49 1016.47 1016.51 1016.62 1016.77 1016.95 1017.14 1017.32 1017.49 1017.63 1017.74 1017.82 1017.86 1017.87 1017.84 1017.77 1017.67 1017.54 1017.38 1017.21 1017.04 1016.87 1016.71 1016.56 1016.41 1016.26 1016.11 1015.95 1015.78 1015.60 1015.43 1015.27 1015.15 1015.08 1015.09 1015.18 1015.35 1015.60 1015.92 1016.29 1016.67
1017.31 1017.08 1016.91 1016.83 1016.86 1016.98 1017.18 1017.42 1017.67 1017.90 1018.08 1018.21 1018.28 1018.30 1018.28 1018.25 1018.19 1018.12 1018.03 1017.92 1017.79 1017.62 1017.43 1017.22 1017.00 1016.78 1016.58 1016.40 1016.25 1016.11 1015.99 1015.88 1015.78 1015.69 1015.63 1015.60 1015.61 1015.69 1015.84 1016.04 1016.31 1016.62 1016.94
1018.11 1017.78 1017.52 1017.37 1017.36 1017.48 1017.70 1017.97 1018.26 1018.50 1018.68 1018.77 1018.79 1018.75 1018.68 1018.60 1018.53 1018.46 1018.39 1018.30 1018.18 1018.02 1017.80 1017.55 1017.27 1017.00 1016.75 1016.55 1016.40 1016.32 1016.28 1016.28 1016.30 1016.34 1016.38 1016.43 1016.50 1016.59 1016.72 1016.89 1017.10 1017.34 1017.59
1019.03 1018.62 1018.28 1018.06 1018.00 1018.09 1018.29 1018.57 1018.85 1019.09 1019.24 1019.29 1019.25 1019.16 1019.04 1018.93 1018.85 1018.78 1018.73 1018.67 1018.56 1018.39 1018.15 1017.85 1017.52 1017.20 1016.92 1016.71 1016.60 1016.58 1016.66 1016.80 1016.97 1017.16 1017.35 1017.51 1017.66 1017.80 1017.94 1018.08 1018.24 1018.40 1018.57
1019.99 1019.53 1019.12 1018.83 1018.71 1018.75 1018.92 1019.17 1019.42 1019.63 1019.74 1019.75 1019.67 1019.54 1019.39 1019.25 1019.16 1019.11 1019.08 1019.03 1018.93 1018.76 1018.50 1018.17 1017.80 1017.43 1017.13 1016.93 1016.86 1016.92 1017.11 1017.40 1017.74 1018.09 1018.43 1018.73 1018.98 1019.19 1019.35 1019.49 1019.60 1019.70 1019.78
1020.89 1020.40 1019.95 1019.60 1019.42 1019.40 1019.52 1019.73 1019.95 1020.12 1020.20 1020.18 1020.07 1019.91 1019.74 1019.61 1019.52 1019.48 1019.47 1019.44 1019.35 1019.18 1018.90 1018.55 1018.15 1017.76 1017.44 1017.25 1017.21 1017.35 1017.64 1018.05 1018.53 1019.04 1019.52 1019.94 1020.30 1020.57 1020.78 1020.92 1021.01 1021.06 1021.07
1021.64 1021.17 1020.70 1020.32 1020.09 1020.02 1020.09 1020.25 1020.43 1020.58 1020.64 1020.60 1020.48 1020.32 1020.15 1020.03 1019.96 1019.94 1019.95 1019.93 1019.86 1019.68 1019.40 1019.04 1018.62 1018.21 1017.89 1017.70 1017.69 1017.87 1018.23 1018.72 1019.30 1019.91 1020.49 1021.02 1021.46 1021.80 1022.05 1022.21 1022.29 1022.32 1022.29
1022.22 1021.79 1021.33 1020.94 1020.68 1020.57 1020.61 1020.73 1020.89 1021.02 1021.08 1021.04 1020.94 1020.79 1020.65 1020.55 1020.50 1020.50 1020.53 1020.53 1020.47 1020.30 1020.03 1019.66 1019.24 1018.83 1018.51 1018.32 1018.31 1018.49 1018.86 1019.38 1019.99 1020.65 1021.29 1021.87 1022.37 1022.77 1023.06 1023.25 1023.35 1023.37 1023.32
Thickness
5781 5785 5786 5787 5786 5786 5786 5785 5785 5784 5783 5782 5781 5780 5778 5777 5775 5773 5771 5770 5768 5766 5764 5763 5762 5761 5760 5759 5757 5756 5754 5753 5752 5750 5749 5748 5746 5745 5744 5743 5741 5740 5739
5785 5786 5786 5786 5786 5785 5785 5784 5783 5782 5781 5780 5779 5778 5776 5775 5773 5772 5770 5768 5766 5765 5763 5761 5760 5759 5758 5757 5755 5754 5753 5752 5750 5749 5748 5747 5745 5744 5742 5741 5740 5738 5737
5787 5787 5786 5786 5785 5785 5784 5783 5782 5781 5780 5779 5778 5776 5775 5774 5772 5771 5769 5767 5765 5763 5762 5760 5759 5758 5756 5755 5754 5753 5752 5750 5749 5748 5747 5745 5744 5742 5741 5739 5738 5737 5736
5788 5787 5786 5785 5785 5784 5783 5782 5781 5779 5778 5777 5776 5775 5774 5772 5771 5769 5768 5766 5764 5762 5761 5759 5757 5756 5755 5754 5753 5752 5751 5749 5748 5746 5745 5744 5742 5741 5740 5738 5737 5736 5734
5789 5788 5786 5785 5784 5783 5782 5781 5780 5778 5777 5776 5775 5774 5773 5771 5770 5768 5767 5765 5763 5762 5760 5759 5757 5756 5754 5753 5752 5751 5750 5749 5747 5745 5744 5742 5741 5740 5739 5738 5736 5735 5733
5789 5788 5787 5786 5784 5783 5781 5780 5779 5778 5777 5775 5774 5773 5772 5770 5769 5767 5766 5764 5763 5761 5759 5758 5756 5755 5754 5753 5752 5750 5749 5748 5746 5745 5743 5741 5740 5739 5738 5737 5735 5734 5732
5789 5788 5787 5786 5784 5782 5781 5780 5779 5777 5776 5775 5773 5772 5771 5769 5768 5767 5765 5763 5762 5760 5758 5757 5756 5754 5753 5752 5751 5750 5748 5747 5746 5744 5742 5741 5740 5738 5737 5736 5735 5733 5732
5790 5789 5787 5786 5784 5782 5781 5780 5778 5776 5775 5774 5773 5771 5770 5769 5767 5766 5764 5763 5761 5760 5758 5757 5755 5754 5753 5752 5751 5749 5748 5747 5745 5743 5741 5740 5739 5738 5737 5735 5733 5732 5731
5790 5788 5787 5785 5784 5782 5780 5779 5777 5776 5774 5773 5772 5770 5769 5768 5767 5766 5764 5762 5761 5759 5758 5756 5755 5754 5753 5752 5751 5749 5748 5746 5744 5742 5741 5740 5739 5738 5736 5735 5733 5731 5730
5788 5787 5786 5785 5783 5781 5780 5778 5776 5775 5774 5772 5771 5769 5768 5768 5767 5765 5763 5761 5760 5758 5757 5756 5755 5754 5753 5752 5750 5749 5748 5746 5744 5743 5741 5740 5739 5738 5736 5734 5733 5731 5729
5786 5786 5786 5784 5783 5781 5779 5777 5776 5775 5773 5772 5770 5769 5768 5767 5765 5764 5762 5761 5759 5758 5757 5756 5754 5754 5753 5752 5750 5749 5747 5745 5744 5743 5741 5740 5739 5738 5736 5734 5732 5731 5729
5782 5784 5785 5784 5782 5780 5779 5777 5775 5774 5773 5771 5769 5768 5767 5766 5764 5763 5761 5760 5759 5758 5756 5755 5754 5754 5753 5751 5750 5749 5747 5745 5744 5743 5741 5741 5739 5738 5736 5734 5732 5730 5729
5786 5786 5785 5784 5783 5781 5779 5777 5775 5774 5772 5770 5769 5768 5766 5765 5763 5762 5760 5759 5758 5757 5756 5755 5754 5753 5752 5751 5750 5748 5747 5745 5744 5743 5742 5741 5740 5738 5736 5734 5731 5730 5728
5787 5786 5786 5785 5784 5782 5780 5778 5775 5774 5772 5770 5769 5768 5766 5764 5763 5762 5760 5759 5757 5756 5755 5754 5753 5753 5752 5750 5749 5748 5747 5746 5744 5743 5742 5741 5740 5738 5736 5734 5732 5730 5728
5787 5787 5787 5787 5785 5783 5781 5779 5776 5775 5773 5772 5770 5768 5766 5765 5763 5762 5760 5759 5757 5756 5755 5754 5753 5752 5751 5751 5750 5749 5747 5746 5745 5744 5743 5742 5740 5738 5736 5734 5732 5730 5728
5789 5788 5789 5788 5786 5784 5782 5780 5778 5776 5774 5772 5771 5769 5767 5765 5763 5762 5760 5759 5757 5756 5755 5754 5753 5752 5751 5751 5750 5749 5748 5747 5745 5744 5743 5742 5740 5739 5737 5735 5733 5731 5729
5791 5791 5790 5789 5787 5785 5783 5781 5779 5777 5775 5773 5771 5769 5768 5766 5764 5763 5761 5759 5758 5757 5756 5754 5753 5752 5751 5750 5749 5748 5748 5747 5745 5744 5743 5741 5740 5739 5737 5735 5734 5732 5730
5793 5791 5791 5791 5787 5785 5783 5781 5779 5777 5775 5773 5771 5769 5768 5766 5765 5763 5761 5759 5758 5757 5755 5754 5752 5750 5749 5748 5747 5747 5747 5746 5746 5744 5743 5741 5740 5739 5737 5736 5734 5732 5730
5796 5793 5791 5790 5787 5785 5783 5781 5779 5776 5774 5773 5771 5769 5768 5766 5765 5763 5761 5759 5758 5756 5755 5753 5751 5749 5747 5747 5746 5746 5747 5746 5746 5745 5743 5742 5740 5739 5737 5736 5734 5732 5730
5798 5795 5792 5790 5787 5785 5783 5780 5777 5775 5774 5772 5771 5769 5768 5766 5764 5762 5760 5759 5757 5755 5753 5752 5750 5749 5747 5746 5747 5745 5745 5745 5746 5745 5744 5742 5740 5739 5737 5735 5733 5732 5730
5797 5794 5792 5789 5787 5785 5781 5777 5773 5771 5771 5771 5770 5770 5768 5766 5764 5762 5760 5758 5756 5754 5752 5751 5749 5747 5745 5746 5742 5739 5742 5743 5743 5743 5743 5742 5740 5739 5737 5735 5733 5731 5730
5797 5795 5792 5790 5788 5786 5783 5780 5776 5773 5771 5771 5770 5769 5768 5766 5764 5761 5759 5758 5756 5754 5752 5750 5749 5745 5744 5745 5739 5734 5730 5733 5738 5742 5741 5740 5739 5738 5736 5735 5733 5731 5730
5798 5796 5795 5792 5789 5787 5784 5780 5777 5773 5770 5768 5767 5766 5767 5765 5763 5762 5760 5758 5756 5754 5751 5750 5749 5745 5741 5742 5742 5736 5727 5724 5729 5735 5738 5738 5737 5736 5735 5734 5733 5731 5729
5801 5800 5797 5794 5791 5788 5785 5780 5775 5770 5765 5766 5766 5766 5766 5765 5764 5762 5760 5757 5755 5753 5752 5750 5750 5747 5744 5740 5740 5740 5738 5734 5727 5726 5731 5734 5735 5733 5733 5733 5732 5730 5727
5805 5801 5798 5794 5791 5789 5786 5782 5777 5772 5770 5768 5768 5766 5766 5765 5764 5762 5760 5757 5755 5753 5752 5750 5748 5747 5745 5742 5739 5738 5737 5735 5733 5726 5723 5726 5729 5731 5731 5730 5729 5728 5726
5806 5802 5799 5794 5791 5789 5786 5783 5778 5774 5771 5768 5766 5764 5764 5763 5762 5761 5760 5757 5755 5754 5752 5750 5749 5747 5745 5743 5741 5739 5736 5732 5729 5727 5722 5721 5721 5725 5728 5728 5727 5726 5725